Miscellaneous Local Product
Issued by NWS North Platte, NE

Home | Current Version | Previous Version | Graphics & Text | Print | Product List | Glossary On
Versions: 1 2 3 4 5 6 7 8 9 10 11 12 13 14 15 16 17 18 19 20 21 22 23 24 25 26 27 28 29 30 31 32 33 34 35 36 37 38 39 40 41 42 43 44 45 46 47 48 49 50
783
AXUS43 KLBF 291210
MISLBF


WESTERN AND NORTH CENTRAL NEBRASKA HOURLY WEATHER ROUNDUP
NATIONAL WEATHER SERVICE NORTH PLATTE NE
700 AM CDT SUN MAY 29 2016

NOTE: "FAIR" INDICATES FEW OR NO CLOUDS BELOW 12,000 FEET WITH NO
SIGNIFICANT WEATHER AND/OR OBSTRUCTIONS TO VISIBILITY.

NOTE: STATIONS NOT REPORTING VARIABLES SUCH AS SKY/WEATHER OR
PRESSURE ARE PROVIDED BY RAWS AND APRS NETWORKS AND ARE NOT UNDER
NATIONAL WEATHER SERVICE QUALITY CONTROL.

...OBSERVATIONS IN AND NEAR THE EASTERN PANHANDLE OF NEBRASKA...

CITY           SKY/WX    TMP DP  RH WIND       PRES   REMARKS
PINE RIDGE     CLEAR     38  37  97 CALM      30.10R
CHADRON        CLEAR     37  36  96 W5        30.10R WCI  33
ALLIANCE       MOCLDY    39  39 100 NW3       30.10R FOG
SIDNEY         CLEAR     42  40  92 S6        30.12R
CRESCENT LAKE    N/A     49  49 100 CALM        N/A
BIG SPRINGS      N/A     47  45  94 S3          N/A
$$

...OBSERVATIONS IN NORTHERN NEBRASKA AND FAR SOUTHERN SOUTH DAKOTA...

CITY           SKY/WX    TMP DP  RH WIND       PRES   REMARKS
WINNER         FAIR      56  49  77 W7        30.06R
VALENTINE      CLEAR     50  47  89 W5        30.09R
THEDFORD       PTCLDY    48  47  95 CALM      30.11R
AINSWORTH      CLEAR     52  50  93 CALM      30.08R
O`NEILL        CLEAR     58  54  86 SW5       30.07R
ORD            CLEAR     53  52  96 CALM      30.07R
BROKEN BOW     CLEAR     54  50  86 CALM      30.09R
BUTTE            N/A     55  52  89 W7          N/A
CHAMBERS         N/A     60  58  95 CALM        N/A
EWING            N/A     57  56  96 W3          N/A
$$

...OBSERVATIONS IN SOUTHWEST NEBRASKA AND FAR NORTHEAST COLORADO...

CITY           SKY/WX    TMP DP  RH WIND       PRES   REMARKS
WRAY           FAIR      50  46  87 W6        30.12R
IMPERIAL       CLEAR     50  48  93 NW3       30.12R
OGALLALA       CLEAR     46  44  93 CALM      30.11R
NORTH PLATTE   CLEAR     48  47  96 CALM      30.11R
MCCOOK         CLEAR     53  48  83 N3        30.10R
LEXINGTON      CLEAR     53  50  91 W3        30.11R
PAXTON           N/A     49  46  91 CALM        N/A
STAPLETON        N/A     49  47  94 CALM        N/A
GOTHENBURG       N/A     52  47  83 W3          N/A
CALLAWAY         N/A     50  48  92 NW3         N/A
$$

...OBSERVATIONS IN CENTRAL LINCOLN COUNTY AREA...

CITY           SKY/WX    TMP DP  RH WIND       PRES   REMARKS
N.P. AIRPORT   CLEAR     48  47  96 CALM      30.11R
N.P. DOWNTOWN    N/A     52  50  93 CALM        N/A
N.P. SOUTHEAST   N/A     50  49  95 CALM        N/A
N.P. HILLCREST   N/A     54  49  83 CALM        N/A
$$

...SOME OBSERVATIONS FROM AROUND THE REGION...

CITY           SKY/WX    TMP DP  RH WIND       PRES   REMARKS
DENVER         PTCLDY    48  39  71 SW10      30.16S
LARAMIE        CLEAR     38  33  82 SE7       30.22R WCI  33
CHEYENNE       CLEAR     45  35  68 W6        30.18R
SCOTTSBLUFF    CLEAR     45  42  89 N3        30.11R
RAPID CITY     MOCLDY    51  45  79 NW6       30.08R
BISMARCK       CLEAR     50  50 100 SW3       30.01R
PIERRE         CLEAR     52  51  97 SW5       30.03R
SIOUX FALLS    MOSUNNY   59  57  93 CALM      30.01R
OMAHA          CLOUDY    58  55  90 SE3       30.05R
GRAND ISLAND   CLEAR     57  55  93 S6        30.09R
KANSAS CITY    MOSUNNY   62  59  90 S5        30.07R
WICHITA        PTCLDY    63  58  83 CALM      30.10R
OKLAHOMA CITY  MOCLDY    67  66  97 S5        30.09R
DALLAS         RAIN      67  62  84 N3        30.13R
AMARILLO       CLEAR     56  52  86 SE12      30.14R
DODGE CITY     CLEAR     59  55  87 S6        30.13R
HAYS           MOCLDY    61  48  63 SE8       30.10F
GOODLAND       CLEAR     49  46  90 SW3       30.12R
$$




USA.gov is the U.S. government's official web portal to all federal, state and local government web resources and services.